QPF
0.00 0.00 0.00 0.00 0.00 0.00 0.00 0.01 0.01 0.01 0.00 0.00 0.00 0.01 0.00 0.00 0.00 0.00 0.01 0.01 0.01 0.00 0.00 0.00 0.00 0.01 0.02 0.02 0.01 0.01 0.01 0.03 0.03 0.03 0.03 0.03 0.02 0.02 0.02 0.02 0.02 0.01 0.01 0.01
0.00 0.00 0.00 0.00 0.00 0.00 0.00 0.00 0.00 0.00 0.00 0.00 0.00 0.00 0.00 0.00 0.00 0.00 0.01 0.01 0.00 0.00 0.00 0.00 0.00 0.00 0.01 0.02 0.02 0.01 0.01 0.02 0.03 0.03 0.02 0.02 0.02 0.02 0.01 0.01 0.01 0.01 0.01 0.00
0.00 0.00 0.00 0.00 0.00 0.00 0.00 0.00 0.00 0.00 0.00 0.00 0.00 0.01 0.00 0.00 0.00 0.00 0.00 0.01 0.01 0.00 0.00 0.00 0.00 0.00 0.01 0.01 0.02 0.02 0.01 0.02 0.03 0.03 0.02 0.02 0.01 0.01 0.01 0.01 0.01 0.01 0.01 0.01
0.00 0.00 0.00 0.00 0.00 0.00 0.01 0.00 0.00 0.00 0.01 0.01 0.01 0.02 0.01 0.00 0.00 0.00 0.00 0.00 0.00 0.00 0.00 0.00 0.00 0.00 0.00 0.01 0.01 0.03 0.02 0.02 0.02 0.02 0.01 0.01 0.01 0.01 0.01 0.01 0.01 0.01 0.00 0.00
0.00 0.00 0.00 0.00 0.00 0.00 0.00 0.00 0.00 0.00 0.01 0.02 0.01 0.02 0.01 0.00 0.01 0.01 0.00 0.01 0.00 0.00 0.00 0.01 0.00 0.01 0.00 0.01 0.01 0.03 0.03 0.03 0.02 0.01 0.01 0.00 0.00 0.00 0.00 0.01 0.01 0.01 0.00 0.00
0.00 0.00 0.00 0.00 0.00 0.00 0.00 0.00 0.00 0.00 0.01 0.02 0.01 0.01 0.02 0.01 0.00 0.01 0.01 0.00 0.01 0.00 0.00 0.00 0.01 0.01 0.01 0.01 0.01 0.03 0.03 0.03 0.02 0.01 0.01 0.01 0.00 0.00 0.00 0.00 0.01 0.01 0.01 0.00
0.00 0.00 0.00 0.00 0.00 0.00 0.00 0.02 0.03 0.03 0.03 0.02 0.00 0.01 0.01 0.00 0.00 0.00 0.01 0.01 0.00 0.00 0.00 0.01 0.01 0.01 0.01 0.01 0.01 0.02 0.03 0.04 0.02 0.01 0.01 0.01 0.00 0.00 0.00 0.00 0.01 0.01 0.00 0.00
0.01 0.01 0.00 0.00 0.00 0.00 0.00 0.01 0.03 0.04 0.03 0.01 0.00 0.00 0.00 0.00 0.00 0.00 0.01 0.01 0.01 0.00 0.00 0.01 0.02 0.02 0.02 0.02 0.01 0.01 0.02 0.02 0.02 0.01 0.01 0.00 0.00 0.00 0.00 0.00 0.01 0.01 0.00 0.00
0.01 0.01 0.00 0.00 0.00 0.00 0.00 0.00 0.00 0.01 0.01 0.01 0.01 0.01 0.00 0.00 0.00 0.00 0.01 0.01 0.01 0.00 0.00 0.01 0.02 0.02 0.01 0.01 0.00 0.00 0.01 0.01 0.01 0.01 0.01 0.00 0.00 0.00 0.00 0.00 0.00 0.00 0.00 0.00
0.00 0.01 0.01 0.00 0.00 0.00 0.00 0.00 0.00 0.01 0.02 0.02 0.01 0.01 0.01 0.00 0.00 0.00 0.00 0.00 0.00 0.01 0.01 0.01 0.01 0.01 0.00 0.01 0.01 0.01 0.01 0.01 0.02 0.02 0.01 0.01 0.01 0.00 0.00 0.00 0.00 0.00 0.00 0.00
0.00 0.00 0.00 0.00 0.00 0.00 0.00 0.00 0.00 0.00 0.00 0.01 0.01 0.01 0.00 0.00 0.00 0.00 0.00 0.00 0.02 0.03 0.02 0.01 0.01 0.01 0.01 0.01 0.01 0.01 0.01 0.01 0.02 0.01 0.01 0.01 0.01 0.01 0.01 0.01 0.01 0.00 0.00 0.00
0.00 0.00 0.00 0.00 0.00 0.00 0.00 0.00 0.00 0.00 0.00 0.00 0.01 0.01 0.00 0.00 0.00 0.00 0.00 0.00 0.02 0.05 0.04 0.02 0.02 0.01 0.02 0.01 0.01 0.02 0.02 0.01 0.01 0.01 0.01 0.01 0.02 0.02 0.01 0.01 0.00 0.00 0.00 0.00
0.00 0.00 0.00 0.01 0.01 0.00 0.00 0.00 0.00 0.00 0.00 0.00 0.01 0.01 0.00 0.00 0.00 0.00 0.00 0.00 0.01 0.03 0.04 0.03 0.01 0.01 0.02 0.01 0.01 0.01 0.01 0.01 0.01 0.01 0.01 0.01 0.01 0.01 0.01 0.01 0.01 0.00 0.00 0.00
0.00 0.00 0.00 0.01 0.01 0.00 0.00 0.00 0.00 0.00 0.00 0.00 0.00 0.00 0.00 0.00 0.00 0.00 0.00 0.00 0.00 0.01 0.03 0.02 0.01 0.01 0.01 0.01 0.01 0.01 0.00 0.00 0.00 0.01 0.01 0.01 0.01 0.01 0.01 0.01 0.01 0.01 0.01 0.00
0.00 0.00 0.00 0.00 0.00 0.00 0.00 0.00 0.00 0.00 0.01 0.00 0.00 0.00 0.00 0.00 0.00 0.00 0.01 0.00 0.00 0.00 0.01 0.01 0.01 0.00 0.00 0.00 0.00 0.00 0.00 0.00 0.01 0.01 0.01 0.01 0.02 0.01 0.01 0.01 0.01 0.01 0.01 0.01
0.00 0.00 0.00 0.00 0.00 0.00 0.00 0.00 0.00 0.00 0.00 0.00 0.00 0.00 0.00 0.00 0.00 0.00 0.00 0.00 0.00 0.00 0.01 0.01 0.00 0.00 0.00 0.00 0.00 0.00 0.00 0.01 0.01 0.01 0.01 0.01 0.01 0.02 0.02 0.02 0.01 0.01 0.01 0.01
0.00 0.00 0.00 0.00 0.00 0.00 0.00 0.00 0.00 0.00 0.00 0.00 0.00 0.00 0.00 0.00 0.00 0.00 0.00 0.00 0.00 0.00 0.00 0.00 0.00 0.00 0.00 0.00 0.00 0.00 0.00 0.01 0.01 0.01 0.01 0.01 0.01 0.02 0.03 0.02 0.02 0.02 0.02 0.01
0.00 0.00 0.01 0.00 0.00 0.01 0.00 0.00 0.00 0.00 0.00 0.00 0.00 0.00 0.00 0.00 0.00 0.01 0.01 0.01 0.01 0.00 0.00 0.00 0.00 0.00 0.00 0.00 0.00 0.00 0.00 0.01 0.01 0.01 0.01 0.01 0.01 0.01 0.01 0.02 0.02 0.03 0.02 0.02
0.00 0.00 0.00 0.00 0.01 0.00 0.00 0.00 0.00 0.00 0.00 0.00 0.00 0.00 0.00 0.01 0.01 0.01 0.01 0.01 0.01 0.00 0.00 0.01 0.00 0.00 0.00 0.00 0.00 0.00 0.00 0.01 0.01 0.01 0.01 0.01 0.01 0.01 0.01 0.01 0.02 0.03 0.03 0.03
0.00 0.00 0.00 0.00 0.01 0.01 0.00 0.00 0.00 0.00 0.00 0.00 0.00 0.00 0.00 0.01 0.01 0.01 0.01 0.01 0.01 0.01 0.01 0.01 0.00 0.00 0.00 0.00 0.00 0.00 0.01 0.01 0.01 0.01 0.01 0.00 0.00 0.01 0.01 0.01 0.02 0.02 0.03 0.02
0.00 0.00 0.00 0.00 0.01 0.00 0.00 0.00 0.00 0.00 0.00 0.00 0.00 0.00 0.00 0.00 0.01 0.01 0.01 0.00 0.01 0.01 0.01 0.00 0.00 0.00 0.00 0.00 0.01 0.01 0.01 0.00 0.00 0.00 0.01 0.00 0.00 0.00 0.01 0.01 0.02 0.01 0.02 0.02
0.00 0.00 0.00 0.00 0.01 0.00 0.00 0.00 0.00 0.00 0.00 0.00 0.00 0.00 0.00 0.00 0.00 0.00 0.00 0.00 0.00 0.01 0.00 0.00 0.00 0.00 0.00 0.00 0.00 0.00 0.00 0.00 0.00 0.00 0.00 0.00 0.00 0.00 0.01 0.01 0.02 0.01 0.01 0.01
0.00 0.00 0.00 0.00 0.00 0.00 0.00 0.00 0.00 0.00 0.00 0.00 0.00 0.00 0.00 0.00 0.00 0.00 0.00 0.00 0.00 0.00 0.00 0.00 0.00 0.00 0.00 0.00 0.00 0.00 0.00 0.00 0.00 0.00 0.00 0.00 0.00 0.00 0.01 0.01 0.01 0.01 0.00 0.00
0.00 0.00 0.00 0.00 0.00 0.00 0.00 0.00 0.00 0.00 0.00 0.00 0.00 0.00 0.00 0.00 0.00 0.00 0.00 0.00 0.00 0.00 0.00 0.00 0.00 0.00 0.00 0.00 0.00 0.00 0.00 0.00 0.00 0.00 0.00 0.00 0.00 0.00 0.01 0.01 0.01 0.01 0.01 0.00
0.00 0.00 0.00 0.00 0.00 0.00 0.00 0.00 0.00 0.00 0.00 0.00 0.00 0.00 0.00 0.00 0.00 0.00 0.00 0.00 0.00 0.00 0.00 0.00 0.00 0.00 0.00 0.00 0.00 0.00 0.00 0.00 0.00 0.00 0.00 0.00 0.00 0.00 0.01 0.01 0.01 0.01 0.01 0.00
0.00 0.00 0.00 0.00 0.00 0.00 0.00 0.00 0.00 0.00 0.00 0.00 0.00 0.00 0.00 0.00 0.00 0.00 0.00 0.00 0.00 0.00 0.00 0.00 0.00 0.00 0.00 0.00 0.00 0.00 0.00 0.00 0.00 0.00 0.00 0.00 0.00 0.00 0.00 0.01 0.01 0.01 0.01 0.01
MSLP
1014.29 1015.04 1015.69 1016.21 1016.61 1016.91 1017.14 1017.32 1017.50 1017.66 1017.82 1017.96 1018.05 1018.09 1018.05 1017.95 1017.81 1017.65 1017.50 1017.40 1017.36 1017.38 1017.45 1017.55 1017.65 1017.73 1017.78 1017.78 1017.75 1017.70 1017.66 1017.65 1017.68 1017.75 1017.84 1017.93 1018.01 1018.03 1018.00 1017.92 1017.80 1017.66 1017.56 1017.51
1015.00 1015.62 1016.13 1016.52 1016.81 1017.03 1017.23 1017.45 1017.68 1017.93 1018.18 1018.39 1018.53 1018.57 1018.50 1018.34 1018.12 1017.88 1017.67 1017.53 1017.48 1017.51 1017.62 1017.76 1017.90 1018.01 1018.07 1018.07 1018.03 1017.98 1017.94 1017.94 1017.99 1018.09 1018.21 1018.34 1018.43 1018.45 1018.39 1018.26 1018.07 1017.86 1017.68 1017.57
1015.54 1016.03 1016.41 1016.68 1016.90 1017.09 1017.30 1017.55 1017.87 1018.21 1018.54 1018.80 1018.97 1019.00 1018.89 1018.65 1018.35 1018.04 1017.77 1017.60 1017.54 1017.59 1017.74 1017.94 1018.13 1018.28 1018.36 1018.37 1018.32 1018.26 1018.20 1018.19 1018.25 1018.35 1018.49 1018.63 1018.73 1018.75 1018.67 1018.51 1018.28 1018.03 1017.81 1017.65
1015.90 1016.28 1016.56 1016.76 1016.93 1017.12 1017.37 1017.70 1018.09 1018.52 1018.92 1019.23 1019.40 1019.40 1019.23 1018.91 1018.53 1018.14 1017.82 1017.61 1017.56 1017.64 1017.83 1018.08 1018.32 1018.52 1018.62 1018.64 1018.59 1018.51 1018.43 1018.40 1018.43 1018.53 1018.66 1018.80 1018.90 1018.93 1018.85 1018.69 1018.46 1018.20 1017.96 1017.79
1016.12 1016.43 1016.64 1016.81 1016.98 1017.20 1017.50 1017.91 1018.38 1018.88 1019.33 1019.66 1019.82 1019.77 1019.53 1019.14 1018.67 1018.21 1017.84 1017.61 1017.56 1017.67 1017.90 1018.20 1018.49 1018.72 1018.85 1018.88 1018.83 1018.72 1018.62 1018.55 1018.55 1018.62 1018.73 1018.86 1018.97 1019.00 1018.95 1018.81 1018.61 1018.37 1018.15 1017.99
1016.25 1016.51 1016.69 1016.86 1017.06 1017.33 1017.71 1018.18 1018.73 1019.28 1019.75 1020.08 1020.21 1020.11 1019.80 1019.34 1018.80 1018.28 1017.87 1017.63 1017.57 1017.70 1017.96 1018.30 1018.62 1018.88 1019.04 1019.08 1019.01 1018.89 1018.75 1018.65 1018.61 1018.64 1018.73 1018.85 1018.95 1019.01 1018.99 1018.90 1018.75 1018.56 1018.38 1018.24
1016.31 1016.54 1016.74 1016.93 1017.18 1017.52 1017.96 1018.50 1019.09 1019.67 1020.14 1020.45 1020.54 1020.39 1020.02 1019.50 1018.91 1018.36 1017.92 1017.67 1017.61 1017.75 1018.03 1018.38 1018.73 1019.00 1019.17 1019.21 1019.14 1019.00 1018.84 1018.71 1018.63 1018.63 1018.69 1018.79 1018.90 1018.98 1019.00 1018.97 1018.88 1018.75 1018.62 1018.52
1016.28 1016.53 1016.76 1017.01 1017.32 1017.72 1018.22 1018.79 1019.40 1019.98 1020.43 1020.70 1020.74 1020.55 1020.15 1019.59 1018.99 1018.43 1017.99 1017.73 1017.68 1017.82 1018.10 1018.44 1018.79 1019.06 1019.22 1019.27 1019.20 1019.05 1018.88 1018.73 1018.63 1018.60 1018.64 1018.72 1018.83 1018.93 1018.99 1019.00 1018.98 1018.91 1018.84 1018.78
1016.16 1016.44 1016.72 1017.03 1017.41 1017.86 1018.40 1018.99 1019.59 1020.13 1020.55 1020.77 1020.77 1020.55 1020.14 1019.60 1019.01 1018.47 1018.06 1017.82 1017.77 1017.89 1018.15 1018.48 1018.79 1019.05 1019.20 1019.24 1019.17 1019.03 1018.86 1018.71 1018.60 1018.56 1018.58 1018.65 1018.76 1018.86 1018.95 1019.00 1019.02 1019.01 1018.99 1018.97
1015.91 1016.24 1016.58 1016.97 1017.40 1017.91 1018.46 1019.04 1019.60 1020.09 1020.44 1020.62 1020.59 1020.36 1019.97 1019.47 1018.94 1018.46 1018.10 1017.89 1017.84 1017.96 1018.18 1018.46 1018.74 1018.95 1019.08 1019.11 1019.05 1018.93 1018.78 1018.65 1018.55 1018.51 1018.52 1018.58 1018.68 1018.78 1018.87 1018.94 1018.99 1019.02 1019.03 1019.04
1015.52 1015.92 1016.34 1016.79 1017.28 1017.81 1018.36 1018.90 1019.40 1019.82 1020.10 1020.22 1020.17 1019.96 1019.62 1019.19 1018.76 1018.37 1018.08 1017.91 1017.89 1017.98 1018.17 1018.39 1018.60 1018.77 1018.87 1018.89 1018.84 1018.75 1018.64 1018.54 1018.47 1018.44 1018.46 1018.51 1018.58 1018.66 1018.74 1018.80 1018.86 1018.90 1018.94 1018.97
1015.05 1015.52 1016.02 1016.54 1017.07 1017.60 1018.12 1018.60 1019.02 1019.34 1019.55 1019.62 1019.55 1019.37 1019.10 1018.78 1018.46 1018.18 1017.99 1017.88 1017.88 1017.96 1018.10 1018.26 1018.41 1018.52 1018.59 1018.60 1018.57 1018.51 1018.45 1018.40 1018.37 1018.36 1018.38 1018.42 1018.47 1018.52 1018.56 1018.61 1018.65 1018.69 1018.73 1018.79
1014.59 1015.13 1015.69 1016.26 1016.81 1017.33 1017.80 1018.20 1018.52 1018.74 1018.85 1018.87 1018.79 1018.65 1018.45 1018.25 1018.06 1017.91 1017.82 1017.80 1017.83 1017.90 1018.00 1018.10 1018.19 1018.25 1018.28 1018.29 1018.28 1018.26 1018.25 1018.25 1018.26 1018.29 1018.31 1018.34 1018.35 1018.36 1018.37 1018.37 1018.39 1018.41 1018.46 1018.52
1014.24 1014.84 1015.45 1016.04 1016.59 1017.07 1017.46 1017.76 1017.96 1018.06 1018.08 1018.04 1017.95 1017.84 1017.73 1017.65 1017.59 1017.58 1017.61 1017.67 1017.75 1017.83 1017.91 1017.96 1018.00 1018.02 1018.02 1018.03 1018.04 1018.06 1018.10 1018.15 1018.20 1018.25 1018.28 1018.29 1018.27 1018.24 1018.20 1018.16 1018.13 1018.14 1018.17 1018.24
1014.09 1014.73 1015.36 1015.95 1016.46 1016.87 1017.17 1017.34 1017.41 1017.39 1017.32 1017.21 1017.11 1017.03 1017.00 1017.03 1017.11 1017.23 1017.38 1017.53 1017.67 1017.78 1017.86 1017.90 1017.91 1017.90 1017.89 1017.89 1017.92 1017.98 1018.06 1018.15 1018.23 1018.29 1018.32 1018.31 1018.27 1018.19 1018.10 1018.02 1017.96 1017.93 1017.96 1018.03
1014.18 1014.82 1015.44 1015.98 1016.43 1016.74 1016.92 1016.97 1016.90 1016.76 1016.59 1016.43 1016.31 1016.26 1016.30 1016.44 1016.64 1016.90 1017.17 1017.43 1017.64 1017.81 1017.91 1017.95 1017.96 1017.94 1017.94 1017.95 1018.00 1018.08 1018.19 1018.30 1018.40 1018.46 1018.48 1018.45 1018.37 1018.26 1018.13 1018.01 1017.91 1017.87 1017.88 1017.94
1014.46 1015.07 1015.63 1016.10 1016.45 1016.65 1016.70 1016.61 1016.42 1016.17 1015.92 1015.71 1015.58 1015.57 1015.68 1015.92 1016.24 1016.62 1017.01 1017.38 1017.69 1017.92 1018.07 1018.15 1018.18 1018.19 1018.19 1018.23 1018.29 1018.38 1018.50 1018.62 1018.72 1018.78 1018.78 1018.72 1018.61 1018.47 1018.31 1018.16 1018.04 1017.97 1017.96 1018.01
1014.81 1015.35 1015.83 1016.19 1016.41 1016.49 1016.41 1016.21 1015.91 1015.59 1015.28 1015.05 1014.93 1014.97 1015.15 1015.48 1015.91 1016.41 1016.92 1017.40 1017.81 1018.13 1018.35 1018.49 1018.57 1018.61 1018.65 1018.70 1018.78 1018.88 1019.00 1019.11 1019.19 1019.23 1019.21 1019.12 1018.99 1018.82 1018.64 1018.48 1018.34 1018.26 1018.23 1018.25
1015.05 1015.49 1015.85 1016.09 1016.19 1016.15 1015.97 1015.68 1015.32 1014.95 1014.63 1014.42 1014.34 1014.44 1014.71 1015.13 1015.67 1016.27 1016.89 1017.47 1017.98 1018.40 1018.70 1018.92 1019.06 1019.16 1019.24 1019.32 1019.41 1019.51 1019.62 1019.71 1019.77 1019.78 1019.73 1019.62 1019.47 1019.28 1019.10 1018.92 1018.79 1018.69 1018.64 1018.63
1015.00 1015.33 1015.56 1015.68 1015.67 1015.53 1015.28 1014.95 1014.58 1014.23 1013.94 1013.78 1013.78 1013.96 1014.32 1014.84 1015.48 1016.18 1016.89 1017.57 1018.17 1018.67 1019.07 1019.36 1019.58 1019.73 1019.86 1019.97 1020.08 1020.19 1020.28 1020.35 1020.38 1020.36 1020.28 1020.15 1019.99 1019.80 1019.61 1019.45 1019.31 1019.21 1019.15 1019.11
1014.55 1014.76 1014.87 1014.88 1014.79 1014.60 1014.33 1014.00 1013.67 1013.39 1013.19 1013.13 1013.24 1013.52 1013.98 1014.60 1015.32 1016.10 1016.89 1017.64 1018.32 1018.90 1019.37 1019.74 1020.03 1020.25 1020.42 1020.57 1020.70 1020.81 1020.89 1020.95 1020.95 1020.91 1020.81 1020.67 1020.50 1020.32 1020.14 1019.99 1019.86 1019.76 1019.69 1019.62
1013.67 1013.78 1013.80 1013.73 1013.60 1013.39 1013.15 1012.88 1012.65 1012.47 1012.41 1012.48 1012.71 1013.11 1013.68 1014.38 1015.17 1016.02 1016.86 1017.67 1018.40 1019.03 1019.56 1020.00 1020.34 1020.62 1020.85 1021.04 1021.19 1021.32 1021.40 1021.44 1021.44 1021.38 1021.28 1021.14 1020.97 1020.80 1020.63 1020.49 1020.37 1020.28 1020.20 1020.12
1012.46 1012.48 1012.43 1012.34 1012.19 1012.02 1011.84 1011.68 1011.57 1011.54 1011.63 1011.85 1012.22 1012.75 1013.41 1014.18 1015.03 1015.91 1016.79 1017.62 1018.38 1019.05 1019.62 1020.10 1020.50 1020.83 1021.10 1021.33 1021.52 1021.66 1021.76 1021.81 1021.81 1021.76 1021.66 1021.52 1021.37 1021.21 1021.06 1020.93 1020.82 1020.73 1020.64 1020.55
1011.07 1011.03 1010.96 1010.86 1010.75 1010.65 1010.57 1010.53 1010.57 1010.69 1010.94 1011.30 1011.81 1012.43 1013.18 1014.01 1014.89 1015.80 1016.68 1017.52 1018.28 1018.96 1019.56 1020.07 1020.50 1020.87 1021.19 1021.46 1021.68 1021.86 1021.99 1022.06 1022.07 1022.04 1021.95 1021.83 1021.69 1021.55 1021.41 1021.29 1021.19 1021.09 1020.99 1020.89
1009.71 1009.64 1009.57 1009.50 1009.45 1009.44 1009.47 1009.56 1009.74 1010.01 1010.39 1010.89 1011.50 1012.21 1013.01 1013.88 1014.78 1015.68 1016.55 1017.37 1018.13 1018.81 1019.41 1019.93 1020.39 1020.79 1021.15 1021.46 1021.72 1021.94 1022.10 1022.21 1022.25 1022.24 1022.18 1022.08 1021.96 1021.83 1021.70 1021.58 1021.47 1021.36 1021.25 1021.13
1008.53 1008.47 1008.43 1008.41 1008.44 1008.52 1008.66 1008.87 1009.17 1009.56 1010.05 1010.64 1011.32 1012.09 1012.92 1013.80 1014.69 1015.58 1016.43 1017.23 1017.96 1018.63 1019.23 1019.76 1020.23 1020.66 1021.04 1021.39 1021.69 1021.94 1022.15 1022.29 1022.37 1022.39 1022.36 1022.28 1022.18 1022.05 1021.92 1021.79 1021.67 1021.55 1021.42 1021.28
Thickness
5776 5762 5753 5759 5764 5762 5757 5750 5744 5751 5763 5755 5747 5745 5750 5755 5752 5749 5748 5746 5745 5744 5747 5746 5744 5741 5738 5736 5733 5730 5728 5726 5723 5720 5718 5716 5715 5716 5715 5715 5715 5715 5715 5714
5762 5755 5767 5773 5770 5764 5757 5748 5746 5753 5763 5757 5748 5748 5756 5758 5754 5752 5751 5749 5748 5746 5746 5744 5742 5739 5736 5733 5731 5729 5726 5724 5722 5720 5719 5717 5716 5715 5714 5713 5713 5713 5712 5712
5754 5762 5773 5766 5760 5756 5754 5750 5750 5748 5756 5759 5750 5742 5751 5758 5759 5756 5755 5754 5752 5749 5745 5743 5741 5738 5735 5731 5729 5728 5726 5723 5721 5720 5718 5716 5713 5712 5710 5709 5709 5710 5710 5710
5760 5768 5766 5760 5757 5757 5746 5759 5757 5751 5743 5738 5745 5722 5744 5753 5751 5752 5751 5752 5750 5749 5747 5743 5740 5737 5734 5732 5731 5728 5725 5723 5721 5719 5715 5711 5707 5704 5706 5707 5707 5708 5708 5707
5755 5763 5759 5754 5758 5760 5754 5761 5757 5752 5745 5739 5745 5732 5739 5753 5743 5747 5750 5751 5750 5749 5746 5742 5740 5737 5735 5732 5729 5727 5724 5721 5719 5717 5714 5711 5708 5706 5707 5706 5705 5704 5705 5705
5761 5770 5767 5762 5765 5765 5762 5757 5754 5753 5742 5724 5743 5736 5731 5746 5747 5748 5751 5752 5750 5749 5745 5742 5739 5736 5732 5730 5727 5725 5721 5718 5717 5716 5714 5710 5707 5705 5704 5703 5702 5701 5701 5702
5749 5758 5766 5766 5754 5758 5754 5737 5720 5718 5717 5725 5754 5743 5737 5754 5760 5756 5752 5751 5750 5748 5743 5738 5735 5731 5728 5726 5724 5722 5719 5716 5715 5714 5712 5710 5708 5706 5703 5702 5700 5699 5698 5698
5734 5736 5756 5759 5752 5745 5747 5739 5716 5704 5713 5727 5745 5737 5744 5761 5762 5760 5756 5752 5749 5745 5742 5737 5733 5729 5726 5723 5722 5720 5717 5715 5713 5712 5711 5710 5708 5705 5703 5702 5701 5699 5698 5697
5736 5736 5758 5761 5762 5754 5741 5740 5747 5729 5728 5723 5732 5741 5745 5756 5754 5752 5750 5748 5744 5742 5739 5736 5733 5729 5725 5723 5720 5719 5716 5714 5712 5711 5710 5708 5707 5705 5702 5701 5701 5699 5698 5697
5747 5733 5746 5755 5755 5755 5751 5746 5737 5724 5710 5708 5725 5732 5728 5736 5740 5744 5744 5742 5741 5740 5738 5735 5731 5728 5726 5723 5720 5718 5716 5713 5711 5710 5708 5707 5705 5703 5702 5700 5698 5697 5696 5694
5750 5734 5735 5741 5736 5737 5740 5738 5735 5729 5726 5708 5704 5717 5746 5741 5742 5740 5741 5741 5739 5737 5735 5733 5730 5728 5725 5722 5719 5716 5714 5712 5710 5708 5707 5704 5702 5701 5700 5698 5696 5695 5693 5692
5747 5737 5728 5738 5751 5754 5745 5739 5735 5716 5715 5722 5711 5715 5752 5749 5747 5743 5740 5740 5738 5737 5734 5731 5728 5725 5722 5719 5717 5714 5712 5710 5708 5707 5705 5703 5701 5699 5697 5695 5694 5693 5691 5690
5739 5729 5717 5720 5727 5739 5737 5739 5738 5732 5723 5716 5708 5713 5748 5747 5743 5741 5738 5736 5734 5732 5730 5728 5724 5721 5718 5716 5714 5712 5710 5708 5707 5705 5703 5701 5698 5696 5693 5692 5692 5690 5688 5686
5736 5727 5720 5709 5717 5727 5727 5732 5733 5725 5710 5711 5717 5720 5733 5735 5734 5734 5734 5732 5730 5728 5725 5722 5718 5717 5715 5713 5711 5710 5707 5706 5705 5702 5700 5697 5696 5693 5691 5690 5688 5686 5685 5683
5732 5720 5727 5733 5736 5734 5730 5728 5729 5723 5721 5713 5718 5722 5728 5731 5730 5730 5729 5727 5725 5722 5720 5718 5715 5713 5711 5709 5708 5707 5704 5703 5701 5698 5695 5694 5693 5691 5689 5687 5685 5683 5681 5679
5726 5718 5721 5722 5732 5731 5725 5728 5728 5726 5725 5722 5721 5720 5732 5733 5731 5727 5724 5721 5717 5716 5716 5715 5713 5710 5707 5706 5704 5702 5701 5700 5697 5694 5691 5690 5689 5687 5684 5682 5681 5679 5676 5674
5718 5713 5706 5706 5722 5719 5710 5724 5724 5722 5726 5722 5713 5718 5727 5722 5720 5719 5718 5716 5713 5712 5711 5710 5709 5706 5704 5703 5701 5698 5697 5696 5693 5690 5688 5686 5684 5681 5680 5678 5675 5673 5671 5669
5712 5708 5704 5701 5703 5687 5714 5736 5732 5723 5723 5725 5723 5723 5722 5720 5719 5718 5717 5713 5711 5710 5708 5706 5705 5703 5702 5701 5698 5696 5694 5691 5688 5685 5683 5681 5679 5676 5674 5672 5670 5668 5666 5664
5715 5704 5696 5693 5687 5696 5714 5725 5723 5715 5711 5722 5719 5719 5719 5719 5713 5711 5714 5712 5708 5707 5706 5704 5702 5700 5699 5697 5695 5691 5689 5686 5683 5680 5679 5678 5675 5672 5669 5666 5664 5663 5661 5659
5709 5705 5692 5687 5678 5679 5699 5719 5727 5715 5698 5716 5716 5712 5711 5708 5692 5695 5707 5706 5704 5703 5701 5699 5698 5695 5692 5690 5689 5685 5682 5679 5677 5676 5676 5675 5672 5668 5665 5662 5660 5658 5656 5654
5686 5686 5681 5678 5676 5688 5706 5715 5715 5687 5689 5709 5711 5708 5705 5698 5695 5698 5701 5699 5698 5696 5695 5693 5690 5686 5684 5684 5682 5678 5675 5674 5674 5673 5672 5670 5668 5664 5661 5658 5656 5653 5651 5648
5682 5678 5677 5677 5670 5677 5704 5703 5693 5693 5705 5706 5704 5703 5700 5698 5697 5696 5693 5690 5689 5687 5687 5685 5682 5679 5678 5678 5675 5672 5670 5670 5670 5669 5666 5664 5663 5660 5658 5653 5650 5649 5646 5642
5688 5688 5686 5684 5682 5696 5702 5699 5701 5702 5699 5698 5696 5696 5694 5690 5688 5687 5685 5683 5682 5680 5679 5678 5675 5672 5671 5671 5669 5665 5664 5665 5665 5663 5661 5659 5657 5655 5652 5648 5645 5643 5640 5637
5689 5696 5688 5684 5688 5693 5695 5696 5696 5696 5693 5693 5692 5690 5688 5684 5682 5680 5678 5676 5675 5674 5673 5671 5669 5666 5664 5664 5663 5661 5660 5659 5658 5656 5654 5653 5650 5647 5645 5643 5641 5637 5634 5632
5679 5681 5678 5676 5683 5685 5687 5687 5687 5687 5687 5686 5685 5684 5681 5678 5676 5673 5671 5670 5669 5669 5667 5665 5662 5660 5659 5658 5657 5656 5655 5654 5651 5649 5647 5645 5643 5640 5638 5635 5633 5632 5630 5628
5677 5674 5668 5667 5678 5676 5676 5681 5681 5678 5677 5677 5675 5674 5674 5672 5669 5668 5666 5665 5663 5662 5662 5660 5657 5655 5654 5653 5651 5650 5650 5648 5645 5642 5640 5638 5635 5633 5630 5627 5625 5624 5623 5622